Weather History for Bishop, CA

Change the Weather History Date:

Tuesday, August 6, 2013

  Actual Average Record
Temperature  
Mean Temperature 76 °F 77 °F  
Max Temperature 98 °F 98 °F 106 °F (1966)
Min Temperature 54 °F 56 °F 43 °F (1991)
Degree Days  
Heating Degree Days 0 0  
Month to date heating degree days 0 0  
Since 1 June heating degree days 0 20  
Since 1 July heating degree days 0 1  
Cooling Degree Days 11 12  
Month to date cooling degree days 55 72  
Year to date cooling degree days 926 736  
Since 1 June cooling degree days 840 668  
Growing Degree Days 26 (Base 50)    
Moisture  
Dew Point 25 °F    
Average Humidity 22    
Maximum Humidity 38    
Minimum Humidity 5    
Precipitation  
Precipitation 0.00 in 0.01 in 0.06 in (1992)
Month to date precipitation 0.00 0.03  
Year to date precipitation 0.95 3.27  
Snow  
Snow 0.00 in 0.00 in - ()
Month to date snowfall 0.0 0.0  
Since 1 June snowfall 0.0 0.0  
Since 1 July snowfall 0.0 0.0  
Snow Depth 0.00 in    
Sea Level Pressure  
Sea Level Pressure 29.84 in    
Wind  
Wind Speed 9 mph (South)    
Max Wind Speed 24 mph    
Max Gust Speed 32 mph    
Visibility 10 miles    
Events      
T = Trace of Precipitation, MM = Missing Value Source: NWS Daily Summary

Daily Weather History Graph

Daily Weather History Graph

Search for Another Location

Airport:

Trip Planner

Search our weather history database for the weather conditions in past years. The results will help you decide how hot, cold, wet, or windy it might be!

Date:

Astronomy

Aug. 06, 2013 Rise Set
Actual Time 6:02 AM PDT 7:55 PM PDT
Civil Twilight 5:33 AM PDT 8:24 PM PDT
Nautical Twilight 4:59 AM PDT 8:58 PM PDT
Astronomical Twilight 4:22 AM PDT 9:35 PM PDT
Moon 5:56 AM PDT (8/6) 7:35 PM PDT (8/6)
Length of Visible Light 14h 50m
Length of Day
13h 53m
Waning Crescent, 0% of the Moon is Illuminated
Aug 6
Waning Crescent
Aug 6
New
Aug 14
First Quarter
Aug 20
Full
Aug 28
Last Quarter

Hourly Weather History & Observations

Time (PDT) Temp. Dew Point Humidity Pressure Visibility Wind Dir Wind Speed Gust Speed Precip Events Conditions
12:56 AM 64.9 °F 27.0 °F 24% 29.86 in 10.0 mi NNW 8.1 mph - N/A   Clear
1:56 AM 63.0 °F 28.0 °F 27% 29.85 in 10.0 mi WNW 6.9 mph - N/A   Clear
2:56 AM 57.9 °F 28.0 °F 32% 29.86 in 10.0 mi NNW 5.8 mph - N/A   Clear
3:56 AM 57.9 °F 28.0 °F 32% 29.86 in 10.0 mi NNW 6.9 mph - N/A   Clear
4:56 AM 55.9 °F 30.0 °F 37% 29.88 in 9.0 mi NW 5.8 mph - N/A   Clear
5:56 AM 57.0 °F 27.0 °F 32% 29.89 in 10.0 mi NNW 4.6 mph - N/A   Clear
6:56 AM 57.9 °F 28.9 °F 33% 29.91 in 10.0 mi North 5.8 mph - N/A   Clear
7:56 AM 69.1 °F 27.0 °F 21% 29.91 in 10.0 mi Calm Calm - N/A   Clear
8:56 AM 75.0 °F 28.0 °F 18% 29.91 in 10.0 mi Calm Calm - N/A   Clear
9:56 AM 82.0 °F 32.0 °F 16% 29.90 in 10.0 mi NE 3.5 mph - N/A   Clear
10:56 AM 87.1 °F 27.0 °F 11% 29.89 in 10.0 mi Variable 4.6 mph - N/A   Clear
11:56 AM 90.0 °F 24.1 °F 9% 29.86 in 10.0 mi Variable 3.5 mph - N/A   Clear
12:56 PM 93.9 °F 19.9 °F 7% 29.84 in 10.0 mi SSE 10.4 mph 16.1 mph N/A   Clear
1:56 PM 97.0 °F 17.1 °F 5% 29.81 in 10.0 mi South 16.1 mph 21.9 mph N/A   Clear
2:56 PM 98.1 °F 16.0 °F 5% 29.79 in 10.0 mi SSE 15.0 mph 24.2 mph N/A   Clear
3:56 PM 97.0 °F 16.0 °F 5% 29.78 in 10.0 mi South 17.3 mph 26.5 mph N/A   Clear
4:56 PM 96.1 °F 16.0 °F 5% 29.77 in 10.0 mi SSE 18.4 mph 26.5 mph N/A   Clear
5:56 PM 93.9 °F 18.0 °F 6% 29.76 in 10.0 mi SSE 18.4 mph 26.5 mph N/A   Clear
6:56 PM 91.0 °F 23.0 °F 8% 29.76 in 10.0 mi SSE 18.4 mph 25.3 mph N/A   Clear
7:56 PM 87.1 °F 26.1 °F 11% 29.76 in 10.0 mi SSE 12.7 mph - N/A   Clear
8:56 PM 84.0 °F 25.0 °F 12% 29.79 in 10.0 mi SE 12.7 mph - N/A   Clear
9:56 PM 81.0 °F 26.1 °F 13% 29.81 in 10.0 mi SSW 5.8 mph - N/A   Clear
10:56 PM 77.0 °F 28.9 °F 17% 29.81 in 10.0 mi SSW 6.9 mph - N/A   Clear
11:56 PM 73.9 °F 30.9 °F 21% 29.83 in 10.0 mi WSW 5.8 mph - N/A   Clear